This demonstration page uses our WeatherBlox Daily Observations layout. Learn more.

Left ArrowRight Arrow

Hourly Observations for October 25, 2021

Temp ( °F °C ) Dew Point ( °F °C ) Humidity (%) Winds ( mph kmh ) Pressure ( in mb ) Visibility ( mi km ) Precip ( " mm )
12:53 am 00:53 Clear 60 15.6 56 13.3 86 86 Calm 30.03 1017 10 16 0.00 0.00
1:53 am 01:53 Clear 60 15.6 56 13.3 86 86 Calm 30.00 1016 10 16 0.00 0.00
2:53 am 02:53 Clear 58 14.4 55 12.8 90 90 Calm 29.98 1015 10 16 0.00 0.00
3:53 am 03:53 Clear 58 14.4 55 12.8 90 90 Calm 29.98 1015 10 16 0.00 0.00
4:53 am 04:53 Clear 54 12.2 53 11.7 97 97 Calm 29.97 1015 9 14 0.00 0.00
5:53 am 05:53 Clear 54 12.2 52 11.1 93 93 Calm 29.96 1015 9 14 0.00 0.00
6:53 am 06:53 Clear 53 11.7 52 11.1 96 96 Calm 29.97 1015 9 14 0.00 0.00
7:53 am 07:53 Sunny 52 11.1 51 10.6 97 97 Calm 29.97 1015 9 14 0.00 0.00
8:13 am 08:13 Mostly Cloudy 54 12.2 52 11.1 93 93 NE 3 6 29.98 1015 10 16 0.00 0.00
8:53 am 08:53 Mostly Cloudy 57 13.9 56 13.3 96 96 Calm 29.97 1015 10 16 0.00 0.00
9:00 am 09:00 Mostly Cloudy 58 14.4 57 13.9 97 97 Calm 29.98 1015 10 16 0.00 0.00
9:25 am 09:25 Mostly Cloudy 60 15.6 57 13.9 90 90 Calm 29.98 1015 10 16 0.00 0.00
9:53 am 09:53 Mostly Cloudy 62 16.7 58 14.4 86 86 Calm 29.97 1015 10 16 0.00 0.00
10:53 am 10:53 Cloudy 66 18.9 60 15.6 81 81 Calm 29.92 1013 10 16 0.00 0.00
11:22 am 11:22 Mostly Cloudy 69 20.6 61 16.1 76 76 SSW 6 9 29.91 1013 10 16 0.00 0.00
11:53 am 11:53 Mostly Cloudy 72 22.2 62 16.7 71 71 SSW 8 13 29.90 1013 10 16 0.00 0.00
12:53 pm 12:53 Cloudy 75 23.9 64 17.8 69 69 W 7 11 29.87 1012 10 16 0.00 0.00
1:00 pm 13:00 Partly Cloudy 75 23.9 64 17.8 69 69 W 6 9 29.86 1011 10 16 0.00 0.00
1:14 pm 13:14 Mostly Cloudy 74 23.3 64 17.8 71 71 WSW 8 13 29.85 1011 10 16 0.00 0.00
1:45 pm 13:45 Mostly Cloudy 76 24.4 64 17.8 67 67 WSW 9 15 29.82 1010 10 16 0.00 0.00
1:53 pm 13:53 Mostly Cloudy 77 25 64 17.8 64 64 SSW 10 17 29.83 1010 10 16 0.00 0.00
2:53 pm 14:53 Mostly Cloudy 78 25.6 64 17.8 62 62 SSW 10 17 29.79 1009 10 16 0.00 0.00
3:53 pm 15:53 Cloudy 77 25 64 17.8 64 64 WSW 8 13 29.78 1009 10 16 0.00 0.00
4:53 pm 16:53 Cloudy 76 24.4 65 18.3 69 69 WNW 9 15 29.78 1009 10 16 0.00 0.00
5:53 pm 17:53 Sunny 77 25 63 17.2 62 62 WSW 9 15 29.78 1009 10 16 0.00 0.00
6:53 pm 18:53 Clear 73 22.8 62 16.7 69 69 WNW 9 15 29.80 1009 10 16 0.00 0.00
7:53 pm 19:53 Clear 70 21.1 61 16.1 73 73 W 8 13 29.82 1010 10 16 0.00 0.00
8:53 pm 20:53 Clear 69 20.6 61 16.1 76 76 WSW 3 6 29.83 1010 10 16 0.00 0.00
9:53 pm 21:53 Clear 67 19.4 60 15.6 79 79 SW 6 9 29.83 1010 10 16 0.00 0.00
10:53 pm 22:53 Clear 65 18.3 59 15 81 81 WNW 8 13 29.85 1011 10 16 0.00 0.00
11:53 pm 23:53 Partly Cloudy 63 17.2 54 12.2 73 73 NNW 13 20 29.85 1011 10 16 0.00 0.00

Powered by AerisWeather